Regional Weather Roundup
Issued by NWS Sterling, VA

Home | Current Version | Previous Version | Graphics & Text | Print | Product List | Glossary On
Versions: 1 2 3 4 5 6 7 8 9 10 11 12 13 14 15 16 17 18 19 20 21 22 23 24 25 26 27 28 29 30 31 32 33 34 35 36 37 38 39 40 41 42 43 44 45 46 47 48 49 50
000
ASUS41 KLWX 162311
RWRLWX

REGIONAL WEATHER ROUNDUP
NATIONAL WEATHER SERVICE BALTIMORE MD/WASHINGTON DC
700 PM EDT MON OCT 16 2017

Note: "FAIR" indicates few or no clouds below 12,000 feet
with no significant weather and/or obstructions to visibility.
 TC=TEMPERATURE CELSIUS

 * =Non NWS site. Station does not report precipitation (e.g. rain,
    snow, etc.), thunder, or fog.

DCZ001-MDZ009-015-VAZ040>042-051-053>054-170000-
WASHINGTON METRO

CITY           SKY/WX    TMP DP  RH WIND       PRES   REMARKS
WASHINGTON NAT PTCLDY    61  36  39 NW13      30.15R
DULLES         PTCLDY    58  35  42 NW10      30.16R
ANDREWS AFB    CLEAR     58  34  40 N13       30.14R
FT BELVOIR     CLEAR     60  36  40 NW7       30.15R
QUANTICO       CLEAR     61  35  37 N7        30.16R
COLLEGE PARK*  CLEAR     59  34  39 NW6       30.15R
LEESBURG*      CLEAR     57  37  47 N6        30.18R
MANASSAS*      CLEAR     58  35  42 N8        30.17R
GAITHERSBURG*  CLEAR     55  35  47 CALM      30.16R

$$

MDZ006>007-011-014-170000-
BALTIMORE METRO

CITY           SKY/WX    TMP DP  RH WIND       PRES   REMARKS
BWI AIRPORT    PTCLDY    57  38  48 NW6       30.14R
MD SCIENCE CTR   N/A     62  36  37 MISG      30.14R
MARTIN STATE   CLEAR     57  43  58 NW3       30.15R
ANNAPOLIS      CLEAR     62  43  49 N10       30.13R
FORT MEADE*    CLEAR     55  37  50 NW5       30.16R

$$

MDZ012-015-019>023-170000-
MARYLAND EASTERN SHORE

CITY           SKY/WX    TMP DP  RH WIND       PRES   REMARKS
OCEAN CITY     CLOUDY    54  46  74 N9        30.12R
SALISBURY      CLOUDY    54  45  71 N6        30.12R
CAMBRIDGE*     CLEAR     57  43  58 N6        30.12R
EASTON*        PTCLDY    55  43  62 CALM      30.16R

$$

MDZ017>025-170000-
SOUTHERN MARYLAND

CITY           SKY/WX    TMP DP  RH WIND       PRES   REMARKS
PATUXENT RIVER MOCLDY    59  44  57 N8        30.12R
ST INIGOES     CLOUDY    58  45  62 NW3       30.12R
LEONARDTOWN*   NOT AVBL

$$

MDZ003>005-170000-
NORTH CENTRAL MARYLAND

CITY           SKY/WX    TMP DP  RH WIND       PRES   REMARKS
FREDERICK*     CLEAR     59  30  33 N6        30.19R
HAGERSTOWN APT PTCLDY    57  36  45 NW16G23   30.17R
WESTMINSTER*   CLEAR     57  37  47 NW6       30.15R

$$

MDZ501>502-170000-
WESTERN MARYLAND

CITY           SKY/WX    TMP DP  RH WIND       PRES   REMARKS
OAKLAND*       MOCLDY    43  36  75 NW5       30.19R
CUMBERLAND*    MOCLDY    57  32  38 NW6       30.24R

$$

VAZ025>031-170000-
SHENANDOAH VALLEY

CITY           SKY/WX    TMP DP  RH WIND       PRES   REMARKS
WINCHESTER*    CLEAR     54  32  43 NW3       30.19R
FRONT ROYAL*   PTCLDY    55  34  44 CALM      30.18R
LURAY*         CLEAR     55  34  44 NW6       30.18R
NEW MARKET*    CLEAR     55  35  47 CALM      30.20R
STAUNTON*      CLEAR     53  38  55 NW7       30.21R
WAYNESBORO*    CLEAR     53  38  57 NW10G17   30.19R

$$

WVZ021-048>050-054>055-170000-
EASTERN WEST VIRGINIA PANHANDLE

CITY           SKY/WX    TMP DP  RH WIND       PRES   REMARKS
MARTINSBURG    CLEAR     57  32  38 NW12      30.18R
PETERSBURG*    PTCLDY    52  38  58 CALM      30.23R

$$

VAZ036>039-050-170000-
CENTRAL FOOTHILLS

CITY           SKY/WX    TMP DP  RH WIND       PRES   REMARKS
CHARLOTTESVILL CLEAR     57  39  51 NW3       30.17R
CULPEPER*      CLEAR     58  32  37 N5        30.17R
ORANGE*        CLEAR     55  36  47 NW5       30.16R
GORDONSVILLE*  CLEAR     56  40  56 CALM      30.16R
WARRENTON*     CLEAR     54  34  46 NW5       30.16R

$$

VAZ055>057-170000-
NORTH AND CENTRAL PIEDMONT

CITY           SKY/WX    TMP DP  RH WIND       PRES   REMARKS
FREDERICKSBRG* CLEAR     60  39  45 N5        30.14R
STAFFORD*      CLEAR     55  36  47 N7        30.19R

$$

NCZ024-NYZ072-PAZ021-071-VAZ022-071-170000-
OTHER REGIONAL OBSERVATIONS

CITY           SKY/WX    TMP DP  RH WIND       PRES   REMARKS
NEW YORK CITY  PTCLDY    55  36  48 NW9       30.13R
PHILADELPHIA   PTCLDY    56  36  47 N9        30.14R
PITTSBURGH     PTCLDY    53  33  46 NW9       30.23S
ROANOKE        PTCLDY    57  36  45 N12G21    30.21R
RICHMOND       CLOUDY    57  44  62 N3        30.14R
RALEIGH        MOCLDY    58  56  93 CALM      30.13R

$$

ANZ530>537-170000-
MARINE OBSERVATIONS

STATION/POSITION TIME  TEMP    WIND        PRES
                       AIR SEA DIR/SP/G
                 (UTC) (F)     (DEG/KT/KT) (MB)
THOMAS PT LIGHT  2300   62 69  330/ 13/ 15   N/A
BALT KEY BRIDGE  2242   62     340/ 13/ 15 1020.1R
COVE POINT       2242   63     360/ 14/ 20 1020.5R
LEWISETTA        2242   61 69   10/  8/ 11 1020.0R
SOLOMONS ISLAND  2242   60 72  350/  8/  9 1019.7R
PINEY POINT      2242           20/  6/  7   N/A

$$




USA.gov is the U.S. government's official web portal to all federal, state and local government web resources and services.